Location: Apthorp Dam
(44.3084°N, 71.7462°W)
Time: 02:20:45
(UTC+00:00)

Tiangong - Visible Passes

Search period start: 15 December 2025 00:00
Search period end: 25 December 2025 00:00
Orbit: 384 x 395 km, 41.5° (Epoch: 14 December)

Date Brightness Start Highest point End Pass type
(mag) Time Alt. Az. Time Alt. Az. Time Alt. Az.
22 Dec 0.2 23:18:51 10° SSW 23:20:14 18° S 23:20:14 18° S visible
23 Dec 0.2 22:21:16 10° S 22:23:04 14° SSE 22:24:39 11° ESE visible
23 Dec 1.1 23:56:30 10° WSW 23:56:56 13° SW 23:56:56 13° SW visible
24 Dec -0.9 22:58:16 10° SW 23:01:06 30° SSE 23:01:16 30° SSE visible
